AirNav   Air Wisconsin pilot careers
 
 874 users online  

M47 Sage Lake Seaplane Base
Hale, Michigan, USA

GOING TO HALE?


FAA INFORMATION EFFECTIVE 24 MAY 2018

Location

FAA Identifier: M47
Lat/Long: 44-21-00.0000N / 083-56-32.0000W
44-21.000000N / 083-56.533333W
44.3500000 / -83.9422222
(estimated)
Elevation: 906 ft. / 276 m (estimated)
From city: 6 miles W of HALE, MI
Time zone: UTC -4 (UTC -5 during Standard Time)
Zip code: 48635

Seaplane Base Operations

Seaplane Base use: Open to the public
Activation date: 02/2014
Control tower: no
ARTCC: MINNEAPOLIS CENTER
FSS: LANSING FLIGHT SERVICE STATION
NOTAMs facility: LAN (NOTAM-D service available)
Attendance: IRREG
Wind indicator: yes, DUE TO TREES IN CLOSE PROXIMITY WINDSOCK UNRELIABLE IN ALL DIRECTIONS.
Segmented circle: no

Seaplane Base Communications

CTAF: 122.9
WX AWOS-3P at Y31 (12 nm SW): 119.575 (989-787-1100)

Nearby radio navigation aids

VOR radial/distance  VOR name  Freq  Var
BXZr064/12.2WEST BRANCH VOR/DME113.2006W
ASPr263/24.2AU SABLE VOR/DME116.1007W
CGGr127/(39.1)GRAYLING VOR109.8006W

Seaplane Base Services

Runway Information

Runway 14L/32R

Dimensions: 6700 x 300 ft. / 2042 x 91 m
Surface: water
RUNWAY 14L  RUNWAY 32R
Latitude: 44-21.497167N44-20.750833N
Longitude: 083-56.915167W083-55.784000W
Elevation: 906.0 ft.906.0 ft.
Traffic pattern: leftleft

Runway 14R/32L

Dimensions: 6700 x 300 ft. / 2042 x 91 m
Surface: water
RUNWAY 14R  RUNWAY 32L
Latitude: 44-21.481667N44-20.725000N
Longitude: 083-57.756333W083-56.638333W
Elevation: 906.0 ft.906.0 ft.
Traffic pattern: leftleft

Runway 5/23

Dimensions: 5000 x 300 ft. / 1524 x 91 m
Surface: water
RUNWAY 5  RUNWAY 23
Latitude: 44-20.914167N44-21.486000N
Longitude: 083-57.139333W083-56.314667W
Elevation: 906.0 ft.906.0 ft.
Traffic pattern: leftleft

Seaplane Base Ownership and Management from official FAA records

Ownership: Privately-owned
Owner: THOMAS GREEN
532 MIDDLE ISLAND
HALE, MI 48739
Phone 810-348-3536
DOCKING FACILITY PHYSICAL ADDRESS, ON MIDDLE ISLAND.
Manager: THOMAS GREEN
6209 SEYMOUR RD.
SWARTZ CREEK, MI 48473
Phone 810-348-3536

Seaplane Base Operational Statistics

Aircraft based on the field: 1
Single engine airplanes: 1
    
Aircraft operations: 200/year *
50% transient general aviation
50% local general aviation
* for 12-month period ending 31 December 2015

Instrument Procedures

There are no published instrument procedures at M47.

Some nearby airports with instrument procedures:

Y31 - West Branch Community Airport (12 nm SW)
6D9 - Iosco County Airport (22 nm E)
KOSC - Oscoda-Wurtsmith Airport (24 nm E)
KHTL - Roscommon County - Blodgett Memorial Airport (31 nm W)
KGDW - Gladwin Zettel Memorial Airport (32 nm SW)
 
Loc | Ops | Rwys | IFR | FBO | Links
Com | Nav | Svcs | Stats | Notes

AirNav Hotels Sweepstakes
 
Aerial photo
No photo
 
Airport distance calculator
Flying to Sage Lake Seaplane Base? Find the distance to fly.

From to M47

Sunrise and sunset
Times for 26-May-2018
 Local
(UTC-4)
 Zulu
(UTC)
Morning civil twilight05:2409:24
Sunrise05:5909:59
Sunset21:0601:06
Evening civil twilight21:4101:41

Current date and time
Zulu (UTC)  26-May-2018 21:38:33
Local (UTC-4)  26-May-2018 17:38:33
 
METAR
KOSC 
24nm E 
262115Z AUTO 08005KT 10SM CLR 15/11 A2978 RMK AO2 T01470105
KHTL 
31nm W 
262121Z AUTO 15007KT 10SM VCTS -RA BKN100 OVC110 21/18 A2979 RMK AO2 LTG DSNT ALQDS TSE15 P0004 T02110183
KGOV 
39nm NW 
262119Z AUTO 15004KT 7SM -RA SCT060 SCT085 23/17 A2974 RMK AO2 LTG DSNT NE AND S-NW RAB19 SLP072
KIKW 
43nm S 
262115Z AUTO 23008KT 10SM BKN050 BKN070 30/18 A2972 RMK AO2 T02970182
KAPN 
46nm N 
262104Z AUTO 09007KT 10SM VCTS FEW075 SCT095 18/14 A2978 RMK AO2 LTG DSNT S AND SW T01830144
TAF
KAPN 
46nm N 
261720Z 2618/2718 11006KT P6SM FEW050 SCT200 FM262000 13007KT P6SM VCTS BKN050CB BKN200 FM270000 10005KT P6SM FEW060 SCT150 FM270300 00000KT P6SM SCT150 FM270800 00000KT P6SM BKN100 FM271500 21006KT P6SM SCT150
KMBS 
49nm S 
261735Z 2618/2718 22008KT P6SM BKN100 TEMPO 2621/2701 6SM -TSRA BKN040CB OVC080 FM270100 20004KT P6SM SCT150 FM270800 VRB03KT 6SM BR SCT250 FM271200 24005KT P6SM FEW250
NOTAMs
Click for the latest NOTAMs
NOTAMs are issued by the DoD/FAA and will open in a separate window not controlled by AirNav.

 

 
 

Would you like to see your business listed on this page?

 If your business provides an interesting product or service to pilots, flight crews, aircraft, or users of the Sage Lake Seaplane Base, you should consider listing it here.  To start the listing process, click on the button below
 
Add a business
 

Other Pages about Sage Lake Seaplane Base

Update a link
 
Copyright © AirNav, LLC. All rights reserved. Privacy Policy  Contact